| time (UTC) | temp F | wind direction | speed knots | gust knots | rain 1hr in | rain 24hr in | rain mn in | humidity % | barometer mb |
| 20260502220057 | 73 | 180 | 2.6 | 8.7 | 0.00 | 0.01 | 0.01 | 20 | 1018.2 |
| 20260502214548 | 74 | 30 | 1.7 | 3.5 | 0.00 | 0.01 | 0.01 | 19 | 1018.4 |
| 20260502213021 | 72 | 311 | 1.7 | 7.0 | 0.00 | 0.01 | 0.01 | 20 | 1018.7 |
| 20260502211625 | 72 | 270 | 2.6 | 9.6 | 0.00 | 0.01 | 0.01 | 19 | 1019.0 |
| 20260502210047 | 72 | 274 | 0.0 | 5.2 | 0.00 | 0.01 | 0.01 | 20 | 1019.2 |
| 20260502204544 | 72 | 48 | 0.9 | 6.1 | 0.00 | 0.01 | 0.01 | 19 | 1019.5 |
| 20260502203040 | 72 | 86 | 3.5 | 7.0 | 0.00 | 0.01 | 0.01 | 19 | 1019.7 |
| 20260502201539 | 72 | 194 | 3.5 | 7.0 | 0.00 | 0.01 | 0.01 | 20 | 1019.9 |
| 20260502200037 | 72 | 207 | 1.7 | 5.2 | 0.00 | 0.01 | 0.01 | 19 | 1020.2 |
| 20260502194537 | 71 | 64 | 2.6 | 7.8 | 0.00 | 0.01 | 0.01 | 20 | 1020.3 |
| 20260502193036 | 70 | 21 | 1.7 | 5.2 | 0.00 | 0.01 | 0.01 | 21 | 1020.6 |
| 20260502191531 | 70 | 96 | 0.9 | 8.7 | 0.00 | 0.01 | 0.01 | 22 | 1020.9 |
| 20260502190030 | 70 | 35 | 4.3 | 8.7 | 0.00 | 0.01 | 0.01 | 21 | 1021.2 |
| 20260502184550 | 71 | 32 | 3.5 | 7.8 | 0.00 | 0.01 | 0.01 | 20 | 1021.2 |
| 20260502183027 | 70 | 17 | 2.6 | 6.1 | 0.00 | 0.01 | 0.01 | 22 | 1021.4 |
| 20260502181530 | 70 | 43 | 0.9 | 8.7 | 0.00 | 0.01 | 0.01 | 22 | 1021.7 |
| 20260502163011 | 63 | 314 | 1.7 | 8.7 | 0.00 | 0.01 | 0.01 | 42 | 1022.7 |
| 20260502161505 | 62 | 274 | 5.2 | 10.4 | 0.00 | 0.01 | 0.01 | 42 | 1022.7 |
| 20260502151602 | 57 | 253 | 5.2 | 9.6 | 0.00 | 0.01 | 0.01 | 57 | 1023.0 |
| 20260502123007 | 40 | 210 | 1.7 | 5.2 | 0.01 | 0.01 | 0.01 | 86 | 1022.2 |
| 20260502121508 | 39 | 221 | 1.7 | 5.2 | 0.01 | 0.01 | 0.01 | 87 | 1022.0 |
| 20260502114505 | 39 | 200 | 2.6 | 6.1 | 0.00 | 0.00 | 0.00 | 88 | 1021.8 |
| 20260502113101 | 39 | 252 | 1.7 | 4.3 | 0.00 | 0.00 | 0.00 | 88 | 1021.7 |
| 20260502111601 | 39 | 242 | 0.9 | 5.2 | 0.00 | 0.00 | 0.00 | 87 | 1021.8 |
| 20260502104559 | 38 | 243 | 2.6 | 5.2 | 0.00 | 0.00 | 0.00 | 88 | 1021.8 |
| 20260502103101 | 38 | 240 | 0.9 | 4.3 | 0.00 | 0.00 | 0.00 | 88 | 1021.8 |
| 20260502101629 | 38 | 244 | 2.6 | 6.1 | 0.00 | 0.00 | 0.00 | 88 | 1021.7 |
| 20260502100117 | 38 | 207 | 0.9 | 3.5 | 0.00 | 0.00 | 0.00 | 88 | 1021.7 |
| 20260502071535 | 40 | 245 | 0.9 | 2.6 | 0.00 | 0.01 | 0.00 | 84 | 1021.5 |
| 20260502070043 | 40 | 317 | 0.0 | 0.9 | 0.00 | 0.01 | 0.00 | 83 | 1021.5 |
| 20260502064530 | 40 | 317 | 0.0 | 0.0 | 0.00 | 0.01 | 0.00 | 82 | 1021.4 |
| 20260502063032 | 41 | 317 | 0.0 | 1.7 | 0.00 | 0.01 | 0.00 | 82 | 1021.3 |
| 20260502061530 | 40 | 317 | 0.0 | 0.9 | 0.00 | 0.01 | 0.00 | 82 | 1021.4 |
| 20260502060031 | 40 | 318 | 0.0 | 0.0 | 0.00 | 0.01 | 0.00 | 83 | 1021.3 |
| 20260502054527 | 40 | 335 | 0.0 | 0.0 | 0.00 | 0.01 | 0.00 | 82 | 1021.3 |
| 20260502053025 | 40 | 335 | 0.0 | 0.0 | 0.00 | 0.01 | 0.00 | 82 | 1021.4 |
| 20260502051528 | 40 | 335 | 0.0 | 0.0 | 0.00 | 0.01 | 0.00 | 81 | 1021.2 |
| 20260502050023 | 41 | 335 | 0.0 | 0.0 | 0.00 | 0.01 | 0.00 | 82 | 1021.0 |
| 20260502044518 | 41 | 339 | 0.0 | 0.0 | 0.00 | 0.01 | 0.01 | 80 | 1020.8 |
| 20260502043015 | 43 | 339 | 0.0 | 0.0 | 0.00 | 0.01 | 0.01 | 80 | 1020.7 |
| 20260502041512 | 43 | 339 | 0.0 | 0.0 | 0.00 | 0.01 | 0.01 | 82 | 1020.6 |
| 20260502040010 | 43 | 339 | 0.0 | 0.0 | 0.00 | 0.01 | 0.01 | 81 | 1020.4 |
| 20260502034507 | 44 | 339 | 0.0 | 0.0 | 0.00 | 0.01 | 0.01 | 79 | 1020.4 |
| 20260502033006 | 44 | 339 | 0.0 | 0.0 | 0.00 | 0.01 | 0.01 | 78 | 1020.4 |
| 20260502031505 | 46 | 339 | 0.0 | 0.0 | 0.00 | 0.01 | 0.01 | 74 | 1020.3 |
| 20260502030005 | 47 | 339 | 0.0 | 0.9 | 0.00 | 0.01 | 0.01 | 74 | 1020.0 |
| 20260502024509 | 47 | 325 | 0.0 | 1.7 | 0.00 | 0.01 | 0.01 | 73 | 1019.9 |
| 20260502023002 | 48 | 327 | 0.0 | 0.9 | 0.00 | 0.01 | 0.01 | 71 | 1019.8 |
| 20260502021600 | 49 | 326 | 0.0 | 0.0 | 0.00 | 0.01 | 0.01 | 70 | 1019.7 |
| 20260502020059 | 49 | 326 | 0.0 | 1.7 | 0.00 | 0.01 | 0.01 | 69 | 1019.3 |
| 20260502014555 | 50 | 321 | 0.0 | 0.9 | 0.00 | 0.01 | 0.01 | 67 | 1019.0 |
| 20260502013053 | 52 | 319 | 0.0 | 1.7 | 0.00 | 0.01 | 0.01 | 64 | 1018.8 |
| 20260502012553 | 52 | 319 | 0.0 | 1.7 | 0.00 | 0.01 | 0.01 | 63 | 1018.6 |
| 20260502012053 | 53 | 317 | 0.0 | 0.9 | 0.00 | 0.01 | 0.01 | 62 | 1018.5 |
| 20260502011558 | 53 | 317 | 0.0 | 1.7 | 0.00 | 0.01 | 0.01 | 61 | 1018.4 |
| 20260502011052 | 53 | 317 | 0.0 | 3.5 | 0.00 | 0.01 | 0.01 | 61 | 1018.4 |
| 20260502010554 | 53 | 317 | 0.0 | 3.5 | 0.00 | 0.01 | 0.01 | 61 | 1018.4 |
| 20260502010052 | 54 | 320 | 0.0 | 3.5 | 0.00 | 0.01 | 0.01 | 60 | 1018.3 |
| 20260502005552 | 55 | 307 | 0.9 | 3.5 | 0.00 | 0.01 | 0.01 | 57 | 1018.3 |
| 20260502005051 | 56 | 325 | 0.9 | 2.6 | 0.00 | 0.01 | 0.01 | 57 | 1018.2 |
| 20260502004608 | 56 | 344 | 0.9 | 2.6 | 0.00 | 0.01 | 0.01 | 56 | 1018.2 |
| 20260502004051 | 56 | 356 | 0.0 | 3.5 | 0.00 | 0.01 | 0.01 | 57 | 1018.1 |
| 20260502003550 | 56 | 280 | 0.9 | 3.5 | 0.00 | 0.01 | 0.01 | 56 | 1018.1 |
| 20260502003051 | 56 | 325 | 0.0 | 4.3 | 0.00 | 0.01 | 0.01 | 56 | 1018.0 |
| 20260502002550 | 56 | 326 | 0.9 | 4.3 | 0.00 | 0.01 | 0.01 | 56 | 1018.0 |
| 20260502002050 | 56 | 326 | 0.0 | 3.5 | 0.00 | 0.01 | 0.01 | 56 | 1018.0 |
| 20260502001550 | 56 | 326 | 0.9 | 3.5 | 0.00 | 0.01 | 0.01 | 56 | 1018.1 |
| 20260502001049 | 56 | 330 | 0.0 | 1.7 | 0.00 | 0.01 | 0.01 | 55 | 1017.9 |
| 20260502000549 | 56 | 329 | 0.9 | 2.6 | 0.00 | 0.01 | 0.01 | 55 | 1017.9 |
| 20260502000049 | 56 | 37 | 0.9 | 3.5 | 0.00 | 0.01 | 0.01 | 55 | 1017.9 |
| 20260501235549 | 56 | 325 | 0.9 | 3.5 | 0.00 | 0.01 | 0.01 | 55 | 1017.9 |
| 20260501235047 | 56 | 49 | 0.0 | 1.7 | 0.00 | 0.01 | 0.01 | 55 | 1017.9 |
| 20260501234548 | 56 | 33 | 0.0 | 1.7 | 0.00 | 0.01 | 0.01 | 57 | 1017.9 |
| 20260501234049 | 55 | 319 | 0.0 | 1.7 | 0.00 | 0.01 | 0.01 | 57 | 1017.9 |
| 20260501233548 | 55 | 319 | 0.0 | 2.6 | 0.00 | 0.01 | 0.01 | 58 | 1017.8 |
| 20260501233048 | 55 | 319 | 0.0 | 2.6 | 0.00 | 0.01 | 0.01 | 58 | 1017.9 |
| 20260501232548 | 55 | 319 | 0.9 | 2.6 | 0.00 | 0.01 | 0.01 | 57 | 1017.9 |
| 20260501232047 | 55 | 326 | 0.9 | 1.7 | 0.00 | 0.01 | 0.01 | 57 | 1017.8 |
| 20260501231553 | 56 | 331 | 0.0 | 0.9 | 0.00 | 0.01 | 0.01 | 57 | 1017.8 |
| 20260501231047 | 56 | 280 | 0.0 | 0.9 | 0.00 | 0.01 | 0.01 | 59 | 1017.9 |
| 20260501230545 | 55 | 281 | 0.0 | 2.6 | 0.00 | 0.01 | 0.01 | 62 | 1018.1 |
| 20260501230047 | 54 | 281 | 0.0 | 2.6 | 0.00 | 0.01 | 0.01 | 62 | 1018.1 |
| 20260501225544 | 54 | 281 | 0.0 | 3.5 | 0.00 | 0.01 | 0.01 | 64 | 1018.1 |
| 20260501225041 | 53 | 281 | 0.0 | 3.5 | 0.00 | 0.01 | 0.01 | 64 | 1018.1 |
| 20260501224548 | 53 | 316 | 0.0 | 1.7 | 0.00 | 0.01 | 0.01 | 66 | 1018.1 |
| 20260501224042 | 53 | 316 | 0.0 | 2.6 | 0.00 | 0.01 | 0.01 | 65 | 1018.1 |
| 20260501223545 | 53 | 317 | 0.0 | 0.9 | 0.00 | 0.01 | 0.01 | 66 | 1018.1 |
| 20260501223104 | 52 | 317 | 0.0 | 2.6 | 0.00 | 0.01 | 0.01 | 67 | 1018.0 |
| 20260501222542 | 52 | 20 | 0.0 | 2.6 | 0.00 | 0.01 | 0.01 | 68 | 1018.0 |
| 20260501222042 | 52 | 316 | 0.0 | 2.6 | 0.00 | 0.01 | 0.01 | 69 | 1018.0 |
| 20260501221541 | 52 | 348 | 0.0 | 2.6 | 0.00 | 0.01 | 0.01 | 70 | 1018.0 |
| 20260501221040 | 52 | 329 | 0.0 | 1.7 | 0.00 | 0.01 | 0.01 | 73 | 1017.9 |
| 20260501220540 | 51 | 1 | 0.0 | 2.6 | 0.00 | 0.01 | 0.01 | 75 | 1017.9 |